| time (UTC) | temp C | wind direction | speed KPH | gust KPH | rain 1hr cm | rain 24hr cm | rain mn cm | humidity % | barometer mb |
| 20260906222048 | 30 | 129 | 0.0 | 0.0 | 0.00 | 0.00 | 0.00 | 58 | 1005.7 |
| 20260906221633 | 30 | 145 | 1.6 | 1.6 | 0.00 | 0.00 | 0.00 | 58 | 1005.7 |
| 20260906221217 | 30 | 183 | 1.6 | 1.6 | 0.00 | 0.00 | 0.00 | 56 | 1006.0 |
| 20260906220253 | 30 | 96 | 1.6 | 3.2 | 0.00 | 0.00 | 0.00 | 56 | 1006.0 |
| 20260906215822 | 30 | 185 | 1.6 | 1.6 | 0.00 | 0.00 | 0.00 | 58 | 1006.0 |
| 20260906215351 | 30 | 107 | 1.6 | 1.6 | 0.00 | 0.00 | 0.00 | 57 | 1006.0 |
| 20260906214934 | 30 | 180 | 1.6 | 3.2 | 0.00 | 0.00 | 0.00 | 57 | 1005.7 |
| 20260906214446 | 30 | 214 | 4.8 | 4.8 | 0.00 | 0.00 | 0.00 | 57 | 1006.0 |
| 20260906214030 | 30 | 115 | 1.6 | 3.2 | 0.00 | 0.00 | 0.00 | 57 | 1005.7 |
| 20260906213612 | 29 | 175 | 3.2 | 3.2 | 0.00 | 0.00 | 0.00 | 60 | 1005.7 |
| 20260906213140 | 29 | 183 | 1.6 | 1.6 | 0.00 | 0.00 | 0.00 | 59 | 1005.7 |
| 20260906212724 | 29 | 181 | 3.2 | 4.8 | 0.00 | 0.00 | 0.00 | 60 | 1005.7 |
| 20260906211823 | 30 | 153 | 1.6 | 1.6 | 0.00 | 0.00 | 0.00 | 59 | 1005.7 |
| 20260906211406 | 30 | 228 | 3.2 | 4.8 | 0.00 | 0.00 | 0.00 | 56 | 1005.4 |
| 20260906210934 | 30 | 320 | 1.6 | 3.2 | 0.00 | 0.00 | 0.00 | 57 | 1005.7 |
| 20260906210518 | 30 | 151 | 1.6 | 3.2 | 0.00 | 0.00 | 0.00 | 60 | 1005.4 |
| 20260906205212 | 30 | 44 | 1.6 | 1.6 | 0.00 | 0.00 | 0.00 | 57 | 1005.4 |
| 20260906204756 | 30 | 179 | 1.6 | 3.2 | 0.00 | 0.00 | 0.00 | 60 | 1005.4 |
| 20260906203822 | 29 | 225 | 1.6 | 1.6 | 0.00 | 0.00 | 0.00 | 60 | 1005.4 |
| 20260906202900 | 28 | 220 | 9.7 | 11.3 | 0.00 | 0.00 | 0.00 | 61 | 1005.4 |
| 20260906202443 | 28 | 216 | 6.4 | 6.4 | 0.00 | 0.00 | 0.00 | 62 | 1005.7 |
| 20260906201957 | 28 | 222 | 9.7 | 11.3 | 0.00 | 0.00 | 0.00 | 61 | 1005.7 |
| 20260906201526 | 29 | 179 | 3.2 | 3.2 | 0.00 | 0.00 | 0.00 | 65 | 1005.4 |
| 20260906201108 | 28 | 178 | 1.6 | 1.6 | 0.00 | 0.00 | 0.00 | 63 | 1005.7 |
| 20260906200637 | 29 | 150 | 1.6 | 1.6 | 0.00 | 0.00 | 0.00 | 64 | 1005.7 |
| 20260906200204 | 29 | 150 | 3.2 | 4.8 | 0.00 | 0.00 | 0.00 | 62 | 1005.7 |
| 20260906195746 | 29 | 189 | 3.2 | 4.8 | 0.00 | 0.00 | 0.00 | 63 | 1005.7 |
| 20260906194857 | 28 | 172 | 1.6 | 3.2 | 0.00 | 0.00 | 0.00 | 64 | 1006.0 |
| 20260906194442 | 29 | 178 | 9.7 | 14.5 | 0.00 | 0.00 | 0.00 | 64 | 1006.0 |
| 20260906193523 | 30 | 252 | 9.7 | 11.3 | 0.00 | 0.00 | 0.00 | 63 | 1006.0 |
| 20260906192635 | 30 | 182 | 3.2 | 3.2 | 0.00 | 0.00 | 0.00 | 63 | 1005.7 |
| 20260906192220 | 28 | 207 | 9.7 | 14.5 | 0.00 | 0.00 | 0.00 | 66 | 1005.7 |
| 20260906191750 | 28 | 228 | 6.4 | 11.3 | 0.00 | 0.00 | 0.00 | 67 | 1006.0 |
| 20260906191335 | 30 | 232 | 3.2 | 4.8 | 0.00 | 0.00 | 0.00 | 62 | 1006.0 |
| 20260906190415 | 28 | 188 | 1.6 | 3.2 | 0.00 | 0.00 | 0.00 | 67 | 1006.0 |
| 20260906185042 | 28 | 222 | 6.4 | 9.7 | 0.00 | 0.00 | 0.00 | 65 | 1006.0 |
| 20260906184611 | 28 | 191 | 3.2 | 3.2 | 0.00 | 0.00 | 0.00 | 66 | 1006.0 |
| 20260906184155 | 28 | 156 | 0.0 | 0.0 | 0.00 | 0.00 | 0.00 | 68 | 1006.0 |
| 20260906183739 | 27 | 261 | 4.8 | 6.4 | 0.00 | 0.00 | 0.00 | 69 | 1006.0 |
| 20260906182347 | 28 | 239 | 1.6 | 4.8 | 0.00 | 0.00 | 0.00 | 72 | 1006.4 |
| 20260906181929 | 28 | 180 | 1.6 | 1.6 | 0.00 | 0.00 | 0.00 | 71 | 1006.4 |
| 20260906180556 | 26 | 185 | 1.6 | 1.6 | 0.00 | 0.00 | 0.00 | 78 | 1006.4 |
| 20260906180139 | 27 | 214 | 6.4 | 6.4 | 0.00 | 0.00 | 0.00 | 75 | 1006.4 |
| 20260906175706 | 27 | 214 | 1.6 | 1.6 | 0.00 | 0.00 | 0.00 | 74 | 1006.4 |
| 20260906175236 | 27 | 214 | 3.2 | 4.8 | 0.00 | 0.00 | 0.00 | 72 | 1006.4 |
| 20260906174802 | 27 | 204 | 3.2 | 3.2 | 0.00 | 0.00 | 0.00 | 75 | 1006.4 |
| 20260906174346 | 27 | 206 | 1.6 | 1.6 | 0.00 | 0.00 | 0.00 | 75 | 1006.7 |
| 20260906172958 | 27 | 123 | 0.0 | 0.0 | 0.00 | 0.00 | 0.00 | 77 | 1006.7 |
| 20260906172526 | 27 | 251 | 6.4 | 6.4 | 0.00 | 0.00 | 0.00 | 78 | 1006.4 |
| 20260906172053 | 26 | 215 | 3.2 | 3.2 | 0.00 | 0.00 | 0.00 | 77 | 1006.7 |
| 20260906171639 | 27 | 223 | 1.6 | 1.6 | 0.00 | 0.00 | 0.00 | 77 | 1006.7 |
| 20260906170246 | 26 | 156 | 1.6 | 1.6 | 0.00 | 0.00 | 0.00 | 80 | 1007.1 |
| 20260906164911 | 25 | 180 | 1.6 | 1.6 | 0.00 | 0.00 | 0.00 | 87 | 1007.1 |
| 20260906164454 | 24 | 212 | 1.6 | 1.6 | 0.00 | 0.00 | 0.00 | 88 | 1007.1 |
| 20260906164038 | 25 | 251 | 4.8 | 6.4 | 0.00 | 0.00 | 0.00 | 88 | 1007.1 |
| 20260906163621 | 24 | 160 | 0.0 | 0.0 | 0.00 | 0.00 | 0.00 | 88 | 1007.1 |
| 20260906163202 | 24 | 203 | 1.6 | 1.6 | 0.00 | 0.00 | 0.00 | 90 | 1007.1 |
| 20260906162745 | 23 | 179 | 3.2 | 3.2 | 0.00 | 0.00 | 0.00 | 90 | 1007.1 |
| 20260906162328 | 23 | 245 | 1.6 | 1.6 | 0.00 | 0.00 | 0.00 | 90 | 1007.1 |
| 20260906161842 | 23 | 250 | 6.4 | 6.4 | 0.00 | 0.00 | 0.00 | 92 | 1007.1 |
| 20260906161426 | 23 | 229 | 3.2 | 4.8 | 0.00 | 0.00 | 0.00 | 92 | 1007.1 |
| 20260906161009 | 23 | 230 | 3.2 | 4.8 | 0.00 | 0.00 | 0.00 | 94 | 1007.4 |
| 20260906160552 | 23 | 183 | 4.8 | 6.4 | 0.00 | 0.00 | 0.00 | 93 | 1007.4 |
| 20260906160121 | 23 | 187 | 4.8 | 6.4 | 0.00 | 0.00 | 0.00 | 92 | 1007.4 |
| 20260906155651 | 22 | 207 | 3.2 | 4.8 | 0.00 | 0.00 | 0.00 | 93 | 1007.4 |
| 20260906155220 | 22 | 225 | 4.8 | 4.8 | 0.00 | 0.00 | 0.00 | 94 | 1007.4 |
| 20260906154749 | 22 | 191 | 3.2 | 3.2 | 0.00 | 0.00 | 0.00 | 94 | 1007.4 |
| 20260906153258 | 22 | 242 | 3.2 | 4.8 | 0.00 | 0.00 | 0.00 | 95 | 1007.4 |
| 20260906152827 | 22 | 208 | 3.2 | 3.2 | 0.00 | 0.00 | 0.00 | 96 | 1007.4 |
| 20260906152355 | 22 | 181 | 3.2 | 3.2 | 0.00 | 0.00 | 0.00 | 95 | 1007.4 |
| 20260906151937 | 22 | 151 | 0.0 | 0.0 | 0.00 | 0.00 | 0.00 | 96 | 1007.4 |
| 20260906151505 | 22 | 160 | 0.0 | 0.0 | 0.00 | 0.00 | 0.00 | 97 | 1007.4 |
| 20260906151035 | 21 | 171 | 1.6 | 1.6 | 0.00 | 0.00 | 0.00 | 98 | 1007.4 |
| 20260906150603 | 21 | 205 | 3.2 | 3.2 | 0.00 | 0.00 | 0.00 | 98 | 1007.4 |
| 20260906150147 | 21 | 173 | 3.2 | 4.8 | 0.00 | 0.00 | 0.00 | 98 | 1007.4 |
| 20260906145713 | 21 | 200 | 1.6 | 1.6 | 0.00 | 0.00 | 0.00 | 98 | 1007.4 |
| 20260906145256 | 21 | 219 | 3.2 | 4.8 | 0.00 | 0.00 | 0.00 | 98 | 1007.4 |
| 20260906144840 | 21 | 176 | 1.6 | 1.6 | 0.00 | 0.00 | 0.00 | 98 | 1007.1 |
| 20260906144423 | 21 | 190 | 1.6 | 1.6 | 0.00 | 0.00 | 0.00 | 99 | 1007.4 |
| 20260906144006 | 21 | 199 | 0.0 | 1.6 | 0.00 | 0.00 | 0.00 | 99 | 1007.1 |
| 20260906143549 | 21 | 182 | 1.6 | 1.6 | 0.00 | 0.00 | 0.00 | 99 | 1007.1 |
| 20260906143120 | 21 | 213 | 3.2 | 3.2 | 0.00 | 0.00 | 0.00 | 99 | 1007.1 |
| 20260906142703 | 21 | 236 | 3.2 | 4.8 | 0.00 | 0.00 | 0.00 | 99 | 1007.1 |
| 20260906142230 | 21 | 236 | 3.2 | 4.8 | 0.00 | 0.00 | 0.00 | 99 | 1007.1 |
| 20260906141813 | 21 | 223 | 6.4 | 6.4 | 0.00 | 0.00 | 0.00 | 99 | 1007.1 |
| 20260906141357 | 21 | 212 | 4.8 | 4.8 | 0.00 | 0.00 | 0.00 | 99 | 1007.1 |
| 20260906140938 | 21 | 179 | 3.2 | 4.8 | 0.00 | 0.00 | 0.00 | 99 | 1007.1 |
| 20260906140521 | 21 | 265 | 3.2 | 3.2 | 0.00 | 0.00 | 0.00 | 99 | 1007.1 |
| 20260906140050 | 21 | 202 | 3.2 | 3.2 | 0.00 | 0.00 | 0.00 | 99 | 1007.1 |
| 20260906135632 | 21 | 233 | 4.8 | 6.4 | 0.00 | 0.00 | 0.00 | 99 | 1007.1 |
| 20260906135216 | 21 | 94 | 1.6 | 3.2 | 0.00 | 0.00 | 0.00 | 99 | 1007.1 |
| 20260906134759 | 21 | 226 | 4.8 | 4.8 | 0.00 | 0.00 | 0.00 | 99 | 1007.1 |
| 20260906134344 | 21 | 195 | 3.2 | 3.2 | 0.00 | 0.00 | 0.00 | 99 | 1007.1 |
| 20260906133927 | 21 | 255 | 4.8 | 6.4 | 0.00 | 0.00 | 0.00 | 99 | 1007.1 |
| 20260906133510 | 21 | 234 | 3.2 | 3.2 | 0.00 | 0.00 | 0.00 | 99 | 1006.7 |
| 20260906133055 | 21 | 176 | 1.6 | 3.2 | 0.00 | 0.00 | 0.00 | 99 | 1007.1 |
| 20260906132637 | 21 | 190 | 3.2 | 4.8 | 0.00 | 0.00 | 0.00 | 99 | 1006.7 |
| 20260906132206 | 21 | 195 | 3.2 | 3.2 | 0.00 | 0.00 | 0.00 | 99 | 1006.7 |
| 20260906131734 | 21 | 169 | 0.0 | 0.0 | 0.00 | 0.00 | 0.00 | 99 | 1006.7 |
| 20260906131318 | 21 | 230 | 3.2 | 4.8 | 0.00 | 0.00 | 0.00 | 99 | 1006.7 |
| 20260906130413 | 21 | 234 | 1.6 | 1.6 | 0.00 | 0.00 | 0.00 | 99 | 1006.7 |
| 20260906125942 | 21 | 143 | 0.0 | 0.0 | 0.00 | 0.00 | 0.00 | 99 | 1006.4 |
| 20260906125037 | 21 | 168 | 0.0 | 1.6 | 0.00 | 0.00 | 0.00 | 99 | 1006.7 |
| 20260906124620 | 21 | 186 | 1.6 | 1.6 | 0.00 | 0.00 | 0.00 | 99 | 1006.4 |
| 20260906124148 | 21 | 179 | 1.6 | 3.2 | 0.00 | 0.00 | 0.00 | 99 | 1006.4 |
| 20260906123717 | 21 | 149 | 0.0 | 0.0 | 0.00 | 0.00 | 0.00 | 99 | 1006.4 |
| 20260906122813 | 21 | 147 | 0.0 | 0.0 | 0.00 | 0.00 | 0.00 | 99 | 1006.0 |
| 20260906122357 | 21 | 149 | 0.0 | 0.0 | 0.00 | 0.00 | 0.00 | 99 | 1006.4 |
| 20260906121925 | 21 | 149 | 0.0 | 0.0 | 0.00 | 0.00 | 0.00 | 99 | 1006.0 |
| 20260906121505 | 21 | 157 | 0.0 | 0.0 | 0.00 | 0.00 | 0.00 | 99 | 1006.4 |
| 20260906121018 | 21 | 146 | 0.0 | 0.0 | 0.00 | 0.00 | 0.00 | 99 | 1006.0 |
| 20260906120547 | 21 | 133 | 0.0 | 0.0 | 0.00 | 0.00 | 0.00 | 99 | 1006.0 |
| 20260906115157 | 21 | 144 | 0.0 | 0.0 | 0.00 | 0.00 | 0.00 | 99 | 1006.0 |
| 20260906114740 | 21 | 145 | 0.0 | 0.0 | 0.00 | 0.00 | 0.00 | 99 | 1006.0 |
| 20260906114324 | 21 | 141 | 0.0 | 0.0 | 0.00 | 0.00 | 0.00 | 99 | 1006.0 |
| 20260906113406 | 21 | 143 | 0.0 | 0.0 | 0.00 | 0.00 | 0.00 | 99 | 1005.7 |
| 20260906112920 | 21 | 148 | 0.0 | 0.0 | 0.00 | 0.00 | 0.00 | 99 | 1005.4 |
| 20260906111947 | 21 | 149 | 0.0 | 0.0 | 0.00 | 0.00 | 0.00 | 99 | 1005.4 |
| 20260906111532 | 21 | 157 | 0.0 | 0.0 | 0.00 | 0.00 | 0.00 | 99 | 1005.7 |
| 20260906111116 | 21 | 144 | 0.0 | 0.0 | 0.00 | 0.00 | 0.00 | 99 | 1005.4 |
| 20260906110700 | 21 | 147 | 0.0 | 0.0 | 0.00 | 0.00 | 0.00 | 99 | 1005.4 |
| 20260906110230 | 21 | 140 | 0.0 | 0.0 | 0.00 | 0.00 | 0.00 | 99 | 1005.4 |
| 20260906105815 | 21 | 134 | 0.0 | 0.0 | 0.00 | 0.00 | 0.00 | 99 | 1005.0 |
| 20260906105344 | 21 | 150 | 0.0 | 0.0 | 0.00 | 0.00 | 0.00 | 99 | 1005.0 |
| 20260906104441 | 21 | 138 | 0.0 | 0.0 | 0.00 | 0.00 | 0.00 | 99 | 1004.7 |
| 20260906104024 | 21 | 140 | 0.0 | 0.0 | 0.00 | 0.00 | 0.00 | 99 | 1005.0 |
| 20260906103609 | 21 | 146 | 0.0 | 0.0 | 0.00 | 0.00 | 0.00 | 99 | 1005.0 |
| 20260906103151 | 21 | 149 | 0.0 | 0.0 | 0.00 | 0.00 | 0.00 | 99 | 1005.0 |
| 20260906102650 | 21 | 134 | 0.0 | 0.0 | 0.00 | 0.00 | 0.00 | 99 | 1004.7 |
| 20260906102219 | 21 | 161 | 0.0 | 0.0 | 0.00 | 0.00 | 0.00 | 99 | 1004.7 |
| 20260906101803 | 21 | 196 | 1.6 | 3.2 | 0.00 | 0.00 | 0.00 | 99 | 1004.7 |
| 20260906101334 | 21 | 164 | 1.6 | 1.6 | 0.00 | 0.00 | 0.00 | 99 | 1004.7 |
| 20260906100902 | 21 | 154 | 0.0 | 0.0 | 0.00 | 0.00 | 0.00 | 99 | 1004.4 |
| 20260906100432 | 21 | 132 | 0.0 | 0.0 | 0.00 | 0.00 | 0.00 | 99 | 1004.4 |
| 20260906100016 | 21 | 132 | 0.0 | 0.0 | 0.00 | 0.00 | 0.00 | 99 | 1004.7 |
| 20260906095529 | 21 | 150 | 0.0 | 0.0 | 0.00 | 0.00 | 0.00 | 99 | 1004.7 |
| 20260906095112 | 21 | 150 | 0.0 | 0.0 | 0.00 | 0.00 | 0.00 | 99 | 1004.7 |
| 20260906093738 | 21 | 133 | 0.0 | 0.0 | 0.00 | 0.00 | 0.00 | 99 | 1004.7 |
| 20260906093322 | 21 | 139 | 0.0 | 0.0 | 0.00 | 0.00 | 0.00 | 99 | 1004.7 |
| 20260906092905 | 21 | 167 | 0.0 | 0.0 | 0.00 | 0.00 | 0.00 | 99 | 1004.7 |
| 20260906092450 | 21 | 173 | 0.0 | 1.6 | 0.00 | 0.00 | 0.00 | 99 | 1004.7 |
| 20260906092019 | 21 | 164 | 0.0 | 0.0 | 0.00 | 0.00 | 0.00 | 99 | 1004.7 |
| 20260906091549 | 21 | 158 | 0.0 | 0.0 | 0.00 | 0.00 | 0.00 | 99 | 1004.7 |
| 20260906091133 | 21 | 185 | 1.6 | 1.6 | 0.00 | 0.00 | 0.00 | 99 | 1004.4 |
| 20260906090659 | 21 | 149 | 0.0 | 0.0 | 0.00 | 0.00 | 0.00 | 99 | 1004.7 |
| 20260906090211 | 21 | 149 | 0.0 | 0.0 | 0.00 | 0.00 | 0.00 | 99 | 1004.4 |
| 20260906085739 | 21 | 142 | 0.0 | 0.0 | 0.00 | 0.00 | 0.00 | 99 | 1004.7 |
| 20260906085322 | 21 | 142 | 0.0 | 0.0 | 0.00 | 0.00 | 0.00 | 99 | 1004.7 |
| 20260906084002 | 21 | 141 | 0.0 | 0.0 | 0.00 | 0.00 | 0.00 | 99 | 1004.4 |
| 20260906083531 | 21 | 141 | 0.0 | 0.0 | 0.00 | 0.00 | 0.00 | 99 | 1004.4 |
| 20260906083114 | 20 | 141 | 0.0 | 0.0 | 0.00 | 0.00 | 0.00 | 99 | 1004.4 |
| 20260906082642 | 20 | 141 | 0.0 | 0.0 | 0.00 | 0.00 | 0.00 | 99 | 1004.7 |
| 20260906082211 | 20 | 141 | 0.0 | 0.0 | 0.00 | 0.00 | 0.00 | 99 | 1004.4 |
| 20260906081252 | 21 | 141 | 0.0 | 0.0 | 0.00 | 0.00 | 0.00 | 99 | 1004.4 |
| 20260906080821 | 21 | 140 | 0.0 | 0.0 | 0.00 | 0.00 | 0.00 | 99 | 1004.7 |
| 20260906080352 | 21 | 140 | 0.0 | 0.0 | 0.00 | 0.00 | 0.00 | 99 | 1004.4 |
| 20260906075935 | 21 | 140 | 0.0 | 0.0 | 0.00 | 0.00 | 0.00 | 99 | 1004.4 |
| 20260906075518 | 21 | 140 | 0.0 | 0.0 | 0.00 | 0.00 | 0.00 | 99 | 1004.7 |
| 20260906075046 | 21 | 140 | 0.0 | 0.0 | 0.00 | 0.00 | 0.00 | 99 | 1004.7 |
| 20260906074631 | 21 | 140 | 0.0 | 0.0 | 0.00 | 0.00 | 0.00 | 99 | 1004.7 |
| 20260906074214 | 21 | 139 | 0.0 | 0.0 | 0.00 | 0.00 | 0.00 | 99 | 1005.0 |
| 20260906073325 | 21 | 137 | 0.0 | 0.0 | 0.00 | 0.00 | 0.00 | 99 | 1004.7 |
| 20260906072908 | 21 | 117 | 0.0 | 0.0 | 0.00 | 0.00 | 0.00 | 99 | 1004.7 |
| 20260906072437 | 21 | 127 | 0.0 | 0.0 | 0.00 | 0.00 | 0.00 | 99 | 1004.4 |
| 20260906071549 | 21 | 137 | 0.0 | 0.0 | 0.00 | 0.00 | 0.00 | 99 | 1004.4 |
| 20260906071133 | 21 | 136 | 0.0 | 0.0 | 0.00 | 0.00 | 0.00 | 99 | 1004.4 |
| 20260906065727 | 21 | 143 | 0.0 | 0.0 | 0.00 | 0.00 | 0.00 | 99 | 1004.4 |
| 20260906065310 | 21 | 143 | 0.0 | 0.0 | 0.00 | 0.00 | 0.00 | 99 | 1004.4 |
| 20260906064838 | 21 | 143 | 0.0 | 0.0 | 0.00 | 0.00 | 0.00 | 99 | 1004.4 |
| 20260906063934 | 21 | 139 | 0.0 | 0.0 | 0.00 | 0.00 | 0.00 | 99 | 1004.4 |
| 20260906063518 | 21 | 137 | 0.0 | 0.0 | 0.00 | 0.00 | 0.00 | 99 | 1004.4 |
| 20260906063100 | 21 | 136 | 0.0 | 0.0 | 0.00 | 0.00 | 0.00 | 99 | 1004.4 |
| 20260906062645 | 21 | 143 | 0.0 | 0.0 | 0.00 | 0.00 | 0.00 | 99 | 1004.4 |
| 20260906061323 | 21 | 134 | 0.0 | 0.0 | 0.00 | 0.00 | 0.00 | 99 | 1004.4 |
| 20260906060906 | 21 | 139 | 0.0 | 0.0 | 0.00 | 0.00 | 0.00 | 99 | 1004.4 |
| 20260906060451 | 21 | 146 | 0.0 | 0.0 | 0.00 | 0.00 | 0.00 | 99 | 1004.4 |
| 20260906060035 | 21 | 146 | 0.0 | 0.0 | 0.00 | 0.00 | 0.00 | 99 | 1004.4 |
| 20260906055618 | 21 | 146 | 0.0 | 0.0 | 0.00 | 0.00 | 0.00 | 99 | 1004.4 |
| 20260906055203 | 21 | 144 | 0.0 | 0.0 | 0.00 | 0.00 | 0.00 | 99 | 1004.4 |
| 20260906054748 | 21 | 144 | 0.0 | 0.0 | 0.00 | 0.00 | 0.00 | 99 | 1004.4 |
| 20260906054302 | 21 | 143 | 0.0 | 0.0 | 0.00 | 0.00 | 0.00 | 99 | 1004.4 |
| 20260906053846 | 21 | 144 | 0.0 | 0.0 | 0.00 | 0.00 | 0.00 | 99 | 1004.4 |
| 20260906053416 | 21 | 144 | 0.0 | 0.0 | 0.00 | 0.00 | 0.00 | 99 | 1004.7 |
| 20260906052945 | 21 | 143 | 0.0 | 0.0 | 0.00 | 0.00 | 0.00 | 99 | 1004.7 |
| 20260906052043 | 21 | 143 | 0.0 | 0.0 | 0.00 | 0.00 | 0.00 | 99 | 1004.7 |
| 20260906050712 | 21 | 144 | 0.0 | 0.0 | 0.00 | 0.00 | 0.00 | 99 | 1004.4 |
| 20260906045824 | 21 | 141 | 0.0 | 0.0 | 0.00 | 0.00 | 0.00 | 99 | 1004.4 |
| 20260906045407 | 21 | 141 | 0.0 | 0.0 | 0.00 | 0.00 | 0.00 | 99 | 1004.4 |
| 20260906044951 | 22 | 140 | 0.0 | 0.0 | 0.00 | 0.00 | 0.00 | 99 | 1004.4 |
| 20260906044520 | 22 | 140 | 0.0 | 0.0 | 0.00 | 0.00 | 0.00 | 99 | 1004.4 |
| 20260906044104 | 22 | 140 | 0.0 | 0.0 | 0.00 | 0.00 | 0.00 | 99 | 1004.4 |
| 20260906042718 | 22 | 146 | 0.0 | 0.0 | 0.00 | 0.00 | 0.00 | 99 | 1004.4 |
| 20260906042302 | 22 | 142 | 0.0 | 0.0 | 0.00 | 0.00 | 0.00 | 99 | 1004.4 |
| 20260906041846 | 22 | 142 | 0.0 | 0.0 | 0.00 | 0.00 | 0.00 | 99 | 1004.0 |
| 20260906040928 | 22 | 142 | 0.0 | 0.0 | 0.00 | 0.00 | 0.00 | 99 | 1004.0 |
| 20260906040512 | 22 | 141 | 0.0 | 0.0 | 0.00 | 0.00 | 0.00 | 99 | 1003.7 |
| 20260906040056 | 22 | 142 | 0.0 | 0.0 | 0.00 | 0.00 | 0.00 | 99 | 1004.0 |
| 20260906035624 | 22 | 142 | 0.0 | 0.0 | 0.00 | 0.00 | 0.23 | 99 | 1004.0 |
| 20260906035207 | 22 | 140 | 0.0 | 0.0 | 0.00 | 0.00 | 0.23 | 99 | 1004.0 |
| 20260906034752 | 22 | 140 | 0.0 | 0.0 | 0.00 | 0.00 | 0.23 | 99 | 1004.0 |
| 20260906033820 | 22 | 140 | 0.0 | 0.0 | 0.00 | 0.00 | 0.23 | 99 | 1004.0 |
| 20260906033400 | 22 | 139 | 0.0 | 0.0 | 0.00 | 0.00 | 0.23 | 99 | 1004.4 |
| 20260906032944 | 22 | 139 | 0.0 | 0.0 | 0.00 | 0.00 | 0.23 | 99 | 1004.4 |
| 20260906032513 | 22 | 141 | 0.0 | 0.0 | 0.00 | 0.00 | 0.23 | 99 | 1004.4 |
| 20260906032043 | 22 | 138 | 0.0 | 0.0 | 0.00 | 0.00 | 0.23 | 99 | 1004.4 |
| 20260906031555 | 23 | 135 | 0.0 | 0.0 | 0.00 | 0.00 | 0.23 | 99 | 1004.4 |
| 20260906031140 | 23 | 95 | 0.0 | 0.0 | 0.00 | 0.00 | 0.23 | 99 | 1004.4 |
| 20260906030651 | 23 | 117 | 0.0 | 0.0 | 0.00 | 0.00 | 0.23 | 99 | 1004.4 |
| 20260906030236 | 23 | 114 | 0.0 | 0.0 | 0.00 | 0.00 | 0.23 | 99 | 1004.4 |
| 20260906025346 | 23 | 134 | 0.0 | 0.0 | 0.00 | 0.00 | 0.23 | 99 | 1004.4 |
| 20260906024914 | 23 | 124 | 0.0 | 0.0 | 0.00 | 0.00 | 0.23 | 99 | 1004.7 |
| 20260906024427 | 22 | 124 | 0.0 | 0.0 | 0.00 | 0.00 | 0.23 | 99 | 1004.7 |
| 20260906023954 | 22 | 121 | 0.0 | 0.0 | 0.00 | 0.00 | 0.23 | 99 | 1004.7 |
| 20260906023538 | 22 | 128 | 0.0 | 0.0 | 0.00 | 0.00 | 0.23 | 99 | 1004.7 |
| 20260906023107 | 22 | 128 | 0.0 | 0.0 | 0.00 | 0.00 | 0.23 | 99 | 1004.7 |
| 20260906022636 | 22 | 117 | 0.0 | 0.0 | 0.00 | 0.00 | 0.23 | 99 | 1004.7 |
| 20260906022204 | 23 | 117 | 0.0 | 0.0 | 0.00 | 0.00 | 0.23 | 99 | 1004.7 |
| 20260906021733 | 23 | 66 | 1.6 | 1.6 | 0.00 | 0.00 | 0.23 | 99 | 1004.7 |
| 20260906021316 | 23 | 44 | 1.6 | 1.6 | 0.00 | 0.00 | 0.23 | 99 | 1004.7 |
| 20260906020357 | 23 | 80 | 0.0 | 1.6 | 0.00 | 0.00 | 0.23 | 99 | 1004.4 |
| 20260906015941 | 23 | 130 | 0.0 | 0.0 | 0.00 | 0.00 | 0.23 | 99 | 1004.4 |
| 20260906015509 | 23 | 136 | 0.0 | 0.0 | 0.00 | 0.00 | 0.23 | 99 | 1004.4 |
| 20260906014621 | 23 | 107 | 0.0 | 0.0 | 0.00 | 0.00 | 0.23 | 99 | 1004.4 |
| 20260906014149 | 23 | 135 | 0.0 | 0.0 | 0.00 | 0.00 | 0.23 | 99 | 1004.4 |
| 20260906013733 | 23 | 140 | 0.0 | 0.0 | 0.00 | 0.00 | 0.23 | 99 | 1004.0 |
| 20260906013259 | 23 | 135 | 0.0 | 0.0 | 0.00 | 0.00 | 0.23 | 99 | 1004.0 |
| 20260906012842 | 23 | 117 | 0.0 | 0.0 | 0.00 | 0.00 | 0.23 | 98 | 1003.7 |
| 20260906012411 | 23 | 141 | 0.0 | 0.0 | 0.00 | 0.00 | 0.23 | 98 | 1003.7 |
| 20260906011939 | 23 | 141 | 0.0 | 0.0 | 0.00 | 0.00 | 0.23 | 98 | 1003.7 |
| 20260906011036 | 23 | 141 | 0.0 | 0.0 | 0.00 | 0.00 | 0.23 | 98 | 1003.3 |
| 20260906010133 | 23 | 140 | 0.0 | 0.0 | 0.00 | 0.00 | 0.23 | 97 | 1003.3 |
| 20260906005716 | 23 | 140 | 0.0 | 0.0 | 0.00 | 0.00 | 0.23 | 97 | 1003.7 |
| 20260906005244 | 23 | 140 | 0.0 | 0.0 | 0.00 | 0.00 | 0.23 | 97 | 1003.3 |
| 20260906004813 | 23 | 140 | 0.0 | 0.0 | 0.00 | 0.00 | 0.23 | 97 | 1003.7 |
| 20260906004340 | 23 | 136 | 0.0 | 0.0 | 0.00 | 0.00 | 0.23 | 97 | 1003.3 |
| 20260906003923 | 24 | 136 | 0.0 | 0.0 | 0.00 | 0.00 | 0.23 | 97 | 1003.3 |
| 20260906003506 | 24 | 134 | 0.0 | 0.0 | 0.00 | 0.00 | 0.23 | 96 | 1003.3 |
| 20260906002602 | 24 | 130 | 0.0 | 0.0 | 0.00 | 0.00 | 0.23 | 96 | 1003.3 |
| 20260906002147 | 24 | 124 | 0.0 | 0.0 | 0.00 | 0.00 | 0.23 | 96 | 1003.3 |
| 20260906001729 | 24 | 140 | 0.0 | 0.0 | 0.00 | 0.00 | 0.23 | 95 | 1003.3 |
| 20260906001257 | 24 | 132 | 0.0 | 0.0 | 0.00 | 0.00 | 0.23 | 95 | 1003.7 |
| 20260906000841 | 25 | 142 | 0.0 | 0.0 | 0.00 | 0.00 | 0.23 | 94 | 1003.7 |
| 20260906000411 | 25 | 130 | 0.0 | 0.0 | 0.00 | 0.00 | 0.23 | 93 | 1003.3 |
| 20260905235952 | 25 | 130 | 0.0 | 0.0 | 0.00 | 0.00 | 0.23 | 93 | 1003.3 |
| 20260905235536 | 25 | 143 | 0.0 | 0.0 | 0.00 | 0.00 | 0.23 | 92 | 1003.7 |
| 20260905235047 | 25 | 140 | 0.0 | 0.0 | 0.00 | 0.00 | 0.23 | 91 | 1003.7 |
| 20260905234631 | 26 | 135 | 0.0 | 0.0 | 0.00 | 0.00 | 0.23 | 91 | 1003.7 |
| 20260905234216 | 26 | 145 | 0.0 | 0.0 | 0.00 | 0.00 | 0.23 | 90 | 1003.7 |
| 20260905233801 | 26 | 141 | 0.0 | 0.0 | 0.00 | 0.00 | 0.23 | 88 | 1004.0 |
| 20260905233345 | 27 | 136 | 0.0 | 0.0 | 0.00 | 0.00 | 0.23 | 87 | 1003.7 |
| 20260905231547 | 29 | 140 | 0.0 | 0.0 | 0.00 | 0.00 | 0.23 | 81 | 1003.7 |
| 20260905231119 | 29 | 138 | 0.0 | 0.0 | 0.00 | 0.00 | 0.23 | 82 | 1003.7 |
| 20260905230219 | 28 | 136 | 0.0 | 0.0 | 0.00 | 0.00 | 0.23 | 84 | 1004.0 |
| 20260905225747 | 28 | 142 | 0.0 | 0.0 | 0.00 | 0.00 | 0.23 | 84 | 1003.7 |
| 20260905225317 | 28 | 141 | 0.0 | 0.0 | 0.00 | 0.00 | 0.23 | 83 | 1003.7 |
| 20260905224846 | 29 | 135 | 0.0 | 0.0 | 0.00 | 0.00 | 0.23 | 83 | 1004.0 |
| 20260905224429 | 29 | 138 | 0.0 | 0.0 | 0.00 | 0.00 | 0.23 | 81 | 1003.7 |
| 20260905224010 | 30 | 144 | 0.0 | 0.0 | 0.00 | 0.00 | 0.23 | 80 | 1004.0 |
| 20260905223539 | 30 | 130 | 0.0 | 0.0 | 0.00 | 0.00 | 0.23 | 78 | 1003.7 |
| 20260905223125 | 30 | 146 | 0.0 | 0.0 | 0.00 | 0.00 | 0.23 | 78 | 1003.7 |
| 20260905222710 | 30 | 144 | 0.0 | 0.0 | 0.00 | 0.00 | 0.23 | 79 | 1004.0 |